Flag for Ecuador Weather past 2 weeks in Quito, Ecuador

Now
55 °F

Passing clouds.


Feels Like: 54 °F
Forecast: 50 / 63 °F
Wind: 7 mph from Southwest

Location: Latacunga Airport

Current Time: Mar 1, 2015 at 11:30:09 PM

Latest Report: Mar 1, 2015 at 11:00 PM


Visibility: N/A

Pressure: 30.48 "Hg

Humidity: 88%

Dew point: 52 °F

Location of QuitoLocation

Historic Weather in Quito — Graph

°F

Quito temperature yesterday

Maximum temperature yesterday: 68 °F (at 3:00 PM)
Minimum temperature yesterday: 52 °F (at 3:00 AM)
Average temperature yesterday: 58 °F

Past Weeks' High & Low Weather Summary

 TemperatureHumidityPressure
High75 °F (Feb 18, 3:00 PM)100% (Feb 16, 2:00 AM)30.48 "Hg (Feb 16, 2:00 AM)
Low41 °F (Feb 21, 8:00 AM)31% (Feb 20, 3:00 PM)30.15 "Hg (Feb 19, 12:00 PM)
Average58 °F77%30.39 "Hg
* Reported Feb 14 10:00 PM — Mar 1 10:00 PM, Quito, Weather by CustomWeather, © 2015

Note: Actual official high and low records may vary slightly from our data, if they occured in-between our weather recording intervals... More about our weather records

Advertising

Quito weather history for previous 24 hours

 ConditionsComfort  
Time TempWeatherWind HumidityBarometerVisibility
10:00 PM
Sun, Mar 1
55 °FPassing clouds.13 mph88%30.42 "HgN/A
9:00 PM55 °FPassing clouds.7 mph88%30.39 "HgN/A
8:00 PM57 °FPassing clouds.9 mph77%30.36 "HgN/A
7:00 PM59 °FPartly cloudy.12 mph68%30.33 "HgN/A
6:00 PM64 °FBroken clouds.12 mph60%30.30 "HgN/A
5:00 PM66 °FBroken clouds.15 mph52%30.27 "HgN/A
3:00 PM70 °FScattered clouds.17 mph43%30.30 "HgN/A
2:00 PMN/APartly sunny.21 mphN/AN/AN/A
1:00 PM66 °FPartly sunny.16 mph52%30.39 "HgN/A
12:00 PM68 °FScattered clouds.17 mph53%30.45 "HgN/A
10:00 AM61 °FScattered clouds.9 mph63%30.45 "HgN/A
8:00 AM54 °FPartly sunny.No wind88%30.45 "HgN/A
7:00 AM52 °FPartly sunny.No wind94%30.45 "HgN/A
5:00 AM52 °FPassing clouds.2 mph94%30.39 "HgN/A
4:00 AM52 °FPassing clouds.7 mph94%30.39 "HgN/A
3:00 AM52 °FPassing clouds.7 mph94%30.39 "HgN/A
2:00 AM52 °FPassing clouds.14 mph94%30.42 "HgN/A
1:00 AM52 °FPassing clouds.12 mph94%30.45 "HgN/A
12:00 AM54 °FPassing clouds.12 mph94%30.45 "HgN/A
11:00 PM
Sat, Feb 28
54 °FPassing clouds.9 mph88%30.48 "HgN/A
Weather by CustomWeather, © 2015

See weather overviewHow to use our weather pages